| time (UTC) | temp F | wind direction | speed MPH | gust MPH | rain 1hr in | rain 24hr in | rain mn in | humidity % | barometer mb |
| 20260906083354 | 66 | 53 | 2.0 | 5.0 | 0.00 | 0.00 | 0.00 | 87 | 1018.9 |
| 20260906082854 | 66 | 96 | 2.0 | 6.0 | 0.00 | 0.00 | 0.00 | 87 | 1018.8 |
| 20260906082350 | 66 | 96 | 2.0 | 8.0 | 0.00 | 0.00 | 0.00 | 87 | 1018.8 |
| 20260906081851 | 66 | 51 | 2.0 | 8.0 | 0.00 | 0.00 | 0.00 | 87 | 1018.7 |
| 20260906081351 | 66 | 65 | 3.0 | 8.0 | 0.00 | 0.00 | 0.00 | 87 | 1018.6 |
| 20260906081111 | 67 | 66 | 3.0 | 8.0 | 0.00 | 0.00 | 0.00 | 88 | 1018.6 |
| 20260906080351 | 67 | 53 | 3.0 | 8.0 | 0.00 | 0.00 | 0.00 | 88 | 1018.6 |
| 20260906075851 | 67 | 38 | 4.0 | 9.0 | 0.00 | 0.00 | 0.00 | 88 | 1018.7 |
| 20260906075351 | 67 | 63 | 4.0 | 9.0 | 0.00 | 0.00 | 0.00 | 89 | 1018.6 |
| 20260906074851 | 68 | 70 | 4.0 | 9.0 | 0.00 | 0.00 | 0.00 | 89 | 1018.6 |
| 20260906074350 | 68 | 100 | 3.0 | 6.0 | 0.00 | 0.00 | 0.00 | 89 | 1018.6 |
| 20260906074114 | 68 | 72 | 3.0 | 7.0 | 0.00 | 0.00 | 0.00 | 89 | 1018.6 |
| 20260906073350 | 69 | 70 | 3.0 | 7.0 | 0.00 | 0.00 | 0.00 | 89 | 1018.5 |
| 20260906072852 | 69 | 80 | 3.0 | 8.0 | 0.00 | 0.00 | 0.00 | 89 | 1018.6 |
| 20260906072348 | 69 | 67 | 3.0 | 8.0 | 0.00 | 0.00 | 0.00 | 89 | 1018.7 |
| 20260906072102 | 69 | 29 | 3.0 | 6.0 | 0.00 | 0.00 | 0.00 | 88 | 1018.9 |
| 20260906071941 | 69 | 102 | 3.0 | 6.0 | 0.00 | 0.00 | 0.00 | 88 | 1018.8 |
| 20260906070845 | 70 | 36 | 3.0 | 6.0 | 0.00 | 0.00 | 0.00 | 88 | 1018.8 |
| 20260906070344 | 70 | 36 | 2.0 | 6.0 | 0.00 | 0.00 | 0.00 | 88 | 1018.8 |
| 20260906065845 | 70 | 41 | 2.0 | 6.0 | 0.00 | 0.00 | 0.00 | 88 | 1018.7 |
| 20260906065345 | 70 | 33 | 2.0 | 4.0 | 0.00 | 0.00 | 0.00 | 88 | 1018.7 |
| 20260906065105 | 70 | 51 | 2.0 | 5.0 | 0.00 | 0.00 | 0.00 | 88 | 1018.6 |
| 20260906064346 | 71 | 46 | 2.0 | 5.0 | 0.00 | 0.00 | 0.00 | 88 | 1018.6 |
| 20260906063846 | 71 | 96 | 2.0 | 3.0 | 0.00 | 0.00 | 0.00 | 88 | 1018.5 |
| 20260906063345 | 71 | 96 | 2.0 | 6.0 | 0.00 | 0.00 | 0.00 | 88 | 1018.5 |
| 20260906062847 | 71 | 90 | 2.0 | 6.0 | 0.00 | 0.00 | 0.00 | 88 | 1018.5 |
| 20260906062343 | 71 | 69 | 2.0 | 4.0 | 0.00 | 0.00 | 0.00 | 88 | 1018.5 |
| 20260906061841 | 71 | 74 | 2.0 | 5.0 | 0.00 | 0.00 | 0.00 | 88 | 1018.5 |
| 20260906061343 | 71 | 66 | 2.0 | 5.0 | 0.00 | 0.00 | 0.00 | 88 | 1018.5 |
| 20260906060841 | 71 | 105 | 2.0 | 6.0 | 0.00 | 0.00 | 0.00 | 88 | 1018.5 |
| 20260906060342 | 71 | 84 | 2.0 | 6.0 | 0.00 | 0.00 | 0.00 | 88 | 1018.6 |
| 20260906055840 | 71 | 96 | 2.0 | 3.0 | 0.00 | 0.00 | 0.00 | 88 | 1018.5 |
| 20260906055341 | 71 | 83 | 2.0 | 3.0 | 0.00 | 0.00 | 0.00 | 88 | 1018.5 |
| 20260906054841 | 71 | 88 | 1.0 | 3.0 | 0.00 | 0.00 | 0.00 | 88 | 1018.5 |
| 20260906054342 | 71 | 88 | 2.0 | 3.0 | 0.00 | 0.00 | 0.00 | 88 | 1018.4 |
| 20260906053836 | 71 | 92 | 2.0 | 5.0 | 0.00 | 0.00 | 0.00 | 88 | 1018.3 |
| 20260906053336 | 71 | 80 | 2.0 | 7.0 | 0.00 | 0.00 | 0.00 | 88 | 1018.3 |
| 20260906052838 | 71 | 84 | 2.0 | 8.0 | 0.00 | 0.00 | 0.00 | 88 | 1018.3 |
| 20260906052336 | 71 | 75 | 3.0 | 8.0 | 0.00 | 0.00 | 0.00 | 88 | 1018.2 |
| 20260906052100 | 71 | 72 | 2.0 | 6.0 | 0.00 | 0.00 | 0.00 | 88 | 1018.3 |
| 20260906051336 | 71 | 29 | 2.0 | 6.0 | 0.00 | 0.00 | 0.00 | 88 | 1018.3 |
| 20260906050836 | 71 | 42 | 2.0 | 5.0 | 0.00 | 0.00 | 0.00 | 88 | 1018.3 |
| 20260906050335 | 71 | 48 | 2.0 | 5.0 | 0.00 | 0.00 | 0.00 | 88 | 1018.2 |
| 20260906050101 | 71 | 59 | 2.0 | 7.0 | 0.00 | 0.00 | 0.00 | 88 | 1018.1 |
| 20260906045335 | 72 | 22 | 2.0 | 7.0 | 0.00 | 0.00 | 0.00 | 88 | 1018.0 |
| 20260906044829 | 72 | 76 | 2.0 | 5.0 | 0.00 | 0.00 | 0.00 | 88 | 1018.0 |
| 20260906044539 | 72 | 40 | 2.0 | 5.0 | 0.00 | 0.00 | 0.00 | 88 | 1018.0 |
| 20260906043816 | 72 | 72 | 2.0 | 5.0 | 0.00 | 0.00 | 0.00 | 88 | 1017.9 |
| 20260906043311 | 72 | 57 | 2.0 | 5.0 | 0.00 | 0.00 | 0.00 | 88 | 1017.9 |
| 20260906042805 | 72 | 64 | 2.0 | 5.0 | 0.00 | 0.00 | 0.00 | 88 | 1017.9 |
| 20260906042259 | 72 | 66 | 2.0 | 5.0 | 0.00 | 0.00 | 0.00 | 88 | 1017.8 |
| 20260906041753 | 72 | 78 | 1.0 | 3.0 | 0.00 | 0.00 | 0.00 | 88 | 1017.8 |
| 20260906041247 | 72 | 78 | 1.0 | 4.0 | 0.00 | 0.00 | 0.00 | 88 | 1017.8 |
| 20260906040741 | 72 | 78 | 2.0 | 4.0 | 0.00 | 0.00 | 0.00 | 88 | 1017.6 |
| 20260906040234 | 72 | 95 | 2.0 | 6.0 | 0.00 | 0.00 | 0.00 | 88 | 1017.6 |
| 20260906035731 | 72 | 96 | 2.0 | 6.0 | 0.00 | 0.00 | 0.00 | 88 | 1017.6 |
| 20260906035231 | 72 | 90 | 2.0 | 5.0 | 0.00 | 0.00 | 0.00 | 88 | 1017.7 |
| 20260906034957 | 72 | 76 | 2.0 | 3.0 | 0.00 | 0.00 | 0.00 | 88 | 1017.7 |
| 20260906034452 | 72 | 83 | 2.0 | 3.0 | 0.00 | 0.00 | 0.00 | 88 | 1017.7 |
| 20260906033735 | 72 | 86 | 2.0 | 5.0 | 0.00 | 0.00 | 0.00 | 88 | 1017.6 |
| 20260906033231 | 72 | 94 | 2.0 | 5.0 | 0.00 | 0.00 | 0.00 | 87 | 1017.6 |
| 20260906032731 | 72 | 62 | 2.0 | 4.0 | 0.00 | 0.00 | 0.00 | 87 | 1017.6 |
| 20260906032457 | 71 | 92 | 1.0 | 3.0 | 0.00 | 0.00 | 0.00 | 87 | 1017.6 |
| 20260906031732 | 71 | 99 | 1.0 | 5.0 | 0.00 | 0.00 | 0.00 | 87 | 1017.5 |
| 20260906031228 | 71 | 88 | 2.0 | 6.0 | 0.00 | 0.00 | 0.00 | 87 | 1017.4 |
| 20260906030727 | 71 | 87 | 2.0 | 6.0 | 0.00 | 0.00 | 0.00 | 87 | 1017.4 |
| 20260906030451 | 71 | 82 | 3.0 | 6.0 | 0.00 | 0.00 | 0.00 | 87 | 1017.4 |
| 20260906025727 | 71 | 73 | 3.0 | 7.0 | 0.00 | 0.00 | 0.00 | 87 | 1017.3 |
| 20260906025228 | 72 | 80 | 3.0 | 7.0 | 0.00 | 0.00 | 0.00 | 87 | 1017.3 |
| 20260906024727 | 72 | 90 | 3.0 | 7.0 | 0.00 | 0.00 | 0.00 | 87 | 1017.4 |
| 20260906024227 | 72 | 67 | 3.0 | 7.0 | 0.00 | 0.00 | 0.00 | 87 | 1017.3 |
| 20260906023728 | 72 | 90 | 3.0 | 8.0 | 0.00 | 0.00 | 0.00 | 87 | 1017.3 |
| 20260906023227 | 72 | 86 | 3.0 | 8.0 | 0.00 | 0.00 | 0.00 | 87 | 1017.3 |
| 20260906022943 | 72 | 48 | 2.0 | 5.0 | 0.00 | 0.00 | 0.00 | 87 | 1017.4 |
| 20260906022227 | 72 | 80 | 3.0 | 7.0 | 0.00 | 0.00 | 0.00 | 87 | 1017.2 |
| 20260906021728 | 72 | 84 | 3.0 | 7.0 | 0.00 | 0.00 | 0.00 | 87 | 1017.2 |
| 20260906021227 | 72 | 84 | 3.0 | 7.0 | 0.00 | 0.00 | 0.00 | 86 | 1017.3 |
| 20260906020726 | 72 | 69 | 3.0 | 7.0 | 0.00 | 0.00 | 0.00 | 86 | 1017.2 |
| 20260906020227 | 72 | 96 | 3.0 | 7.0 | 0.00 | 0.00 | 0.00 | 86 | 1017.2 |
| 20260906015948 | 72 | 101 | 4.0 | 9.0 | 0.00 | 0.00 | 0.00 | 87 | 1017.2 |
| 20260906015226 | 72 | 55 | 3.0 | 9.0 | 0.00 | 0.00 | 0.00 | 87 | 1017.1 |
| 20260906014729 | 72 | 83 | 3.0 | 7.0 | 0.00 | 0.00 | 0.00 | 87 | 1017.1 |
| 20260906014227 | 72 | 76 | 3.0 | 8.0 | 0.00 | 0.00 | 0.00 | 87 | 1017.1 |
| 20260906013725 | 72 | 72 | 4.0 | 9.0 | 0.00 | 0.00 | 0.00 | 87 | 1017.1 |
| 20260906013222 | 72 | 9 | 5.0 | 9.0 | 0.00 | 0.00 | 0.00 | 87 | 1017.1 |
| 20260906012720 | 73 | 64 | 4.0 | 10.0 | 0.00 | 0.00 | 0.00 | 87 | 1016.8 |
| 20260906012440 | 73 | 35 | 4.0 | 10.0 | 0.00 | 0.00 | 0.00 | 87 | 1016.8 |
| 20260906011714 | 73 | 90 | 4.0 | 8.0 | 0.00 | 0.00 | 0.00 | 87 | 1016.8 |
| 20260906011208 | 73 | 63 | 4.0 | 9.0 | 0.00 | 0.00 | 0.00 | 87 | 1016.7 |
| 20260906010702 | 73 | 78 | 3.0 | 9.0 | 0.00 | 0.00 | 0.00 | 87 | 1016.6 |
| 20260906010157 | 73 | 99 | 4.0 | 10.0 | 0.00 | 0.00 | 0.00 | 86 | 1016.5 |
| 20260906005650 | 73 | 24 | 5.0 | 10.0 | 0.00 | 0.00 | 0.00 | 86 | 1016.4 |
| 20260906005144 | 73 | 67 | 5.0 | 10.0 | 0.00 | 0.00 | 0.00 | 86 | 1016.3 |
| 20260906004857 | 74 | 54 | 5.0 | 13.0 | 0.00 | 0.00 | 0.00 | 86 | 1016.2 |
| 20260906004350 | 74 | 92 | 5.0 | 13.0 | 0.00 | 0.00 | 0.00 | 86 | 1016.2 |
| 20260906003626 | 74 | 40 | 5.0 | 10.0 | 0.00 | 0.00 | 0.00 | 85 | 1016.2 |
| 20260906003120 | 74 | 86 | 5.0 | 10.0 | 0.00 | 0.00 | 0.00 | 85 | 1016.2 |
| 20260906002614 | 75 | 82 | 5.0 | 11.0 | 0.00 | 0.00 | 0.00 | 85 | 1016.2 |
| 20260906002108 | 75 | 51 | 5.0 | 13.0 | 0.00 | 0.00 | 0.00 | 85 | 1016.1 |
| 20260906001602 | 76 | 35 | 5.0 | 16.0 | 0.00 | 0.00 | 0.00 | 85 | 1016.0 |
| 20260906001056 | 76 | 76 | 5.0 | 16.0 | 0.00 | 0.00 | 0.00 | 84 | 1016.1 |
| 20260906000550 | 76 | 96 | 5.0 | 13.0 | 0.00 | 0.00 | 0.00 | 84 | 1016.1 |
| 20260906000044 | 77 | 34 | 5.0 | 13.0 | 0.00 | 0.00 | 0.00 | 83 | 1016.1 |
| 20260905235538 | 77 | 24 | 5.0 | 11.0 | 0.00 | 0.00 | 0.00 | 83 | 1016.1 |
| 20260905235232 | 78 | 59 | 6.0 | 15.0 | 0.00 | 0.00 | 0.00 | 82 | 1015.9 |
| 20260905235118 | 78 | 80 | 6.0 | 12.0 | 0.00 | 0.00 | 0.00 | 83 | 1015.9 |
| 20260905234020 | 78 | 53 | 6.0 | 15.0 | 0.00 | 0.00 | 0.00 | 82 | 1015.9 |
| 20260905233956 | 78 | 51 | 5.0 | 15.0 | 0.00 | 0.00 | 0.00 | 82 | 1015.8 |
| 20260905233006 | 79 | 42 | 4.0 | 9.0 | 0.00 | 0.00 | 0.00 | 82 | 1015.7 |
| 20260905232506 | 79 | 83 | 4.0 | 9.0 | 0.00 | 0.00 | 0.00 | 82 | 1015.7 |
| 20260905232009 | 79 | 31 | 5.0 | 5.0 | 0.00 | 0.00 | 0.00 | 81 | 1015.6 |
| 20260905231449 | 80 | 103 | 4.0 | 10.0 | 0.00 | 0.00 | 0.00 | 81 | 1015.6 |
| 20260905230943 | 80 | 65 | 4.0 | 11.0 | 0.00 | 0.00 | 0.00 | 81 | 1015.6 |
| 20260905230437 | 80 | 26 | 4.0 | 11.0 | 0.00 | 0.00 | 0.00 | 80 | 1015.5 |
| 20260905230202 | 81 | 35 | 4.0 | 10.0 | 0.00 | 0.00 | 0.00 | 81 | 1015.5 |
| 20260905225437 | 81 | 36 | 4.0 | 10.0 | 0.00 | 0.00 | 0.00 | 81 | 1015.4 |
| 20260905224937 | 81 | 96 | 4.0 | 12.0 | 0.00 | 0.00 | 0.00 | 80 | 1015.3 |
| 20260905224437 | 81 | 17 | 4.0 | 12.0 | 0.00 | 0.00 | 0.00 | 80 | 1015.3 |
| 20260905223936 | 82 | 75 | 4.0 | 11.0 | 0.00 | 0.00 | 0.00 | 79 | 1015.1 |
| 20260905223434 | 82 | 67 | 5.0 | 11.0 | 0.00 | 0.00 | 0.00 | 79 | 1015.1 |
| 20260905222934 | 83 | 20 | 5.0 | 10.0 | 0.00 | 0.00 | 0.00 | 79 | 1015.1 |
| 20260905222434 | 83 | 49 | 5.0 | 9.0 | 0.00 | 0.00 | 0.00 | 80 | 1015.0 |
| 20260905221933 | 83 | 73 | 4.0 | 11.0 | 0.00 | 0.00 | 0.00 | 80 | 1014.8 |
| 20260905221429 | 83 | 83 | 5.0 | 11.0 | 0.00 | 0.00 | 0.00 | 80 | 1014.8 |
| 20260905221152 | 83 | 53 | 5.0 | 11.0 | 0.00 | 0.00 | 0.00 | 79 | 1014.7 |
| 20260905220428 | 83 | 40 | 5.0 | 13.0 | 0.00 | 0.00 | 0.00 | 79 | 1014.7 |
| 20260905215929 | 83 | 32 | 4.0 | 13.0 | 0.00 | 0.00 | 0.00 | 79 | 1014.7 |
| 20260905215429 | 83 | 88 | 4.0 | 11.0 | 0.00 | 0.00 | 0.00 | 79 | 1014.7 |
| 20260905214928 | 83 | 98 | 4.0 | 9.0 | 0.00 | 0.00 | 0.00 | 80 | 1014.6 |
| 20260905214430 | 83 | 86 | 4.0 | 9.0 | 0.00 | 0.00 | 0.00 | 80 | 1014.6 |
| 20260905213930 | 82 | 34 | 4.0 | 10.0 | 0.00 | 0.00 | 0.00 | 81 | 1014.5 |
| 20260905213424 | 82 | 101 | 5.0 | 11.0 | 0.00 | 0.00 | 0.00 | 82 | 1014.5 |
| 20260905212918 | 82 | 65 | 4.0 | 11.0 | 0.00 | 0.00 | 0.00 | 81 | 1014.5 |
| 20260905212412 | 82 | 19 | 4.0 | 9.0 | 0.00 | 0.00 | 0.00 | 81 | 1014.5 |
| 20260905211906 | 83 | 48 | 4.0 | 9.0 | 0.00 | 0.00 | 0.00 | 80 | 1014.5 |
| 20260905211400 | 83 | 10 | 4.0 | 9.0 | 0.00 | 0.00 | 0.00 | 80 | 1014.5 |
| 20260905210854 | 84 | 55 | 4.0 | 9.0 | 0.00 | 0.00 | 0.00 | 78 | 1014.5 |
| 20260905210348 | 84 | 55 | 4.0 | 10.0 | 0.00 | 0.00 | 0.00 | 78 | 1014.4 |
| 20260905205842 | 85 | 51 | 4.0 | 8.0 | 0.00 | 0.00 | 0.00 | 77 | 1014.5 |
| 20260905205532 | 85 | 44 | 4.0 | 8.0 | 0.00 | 0.00 | 0.00 | 76 | 1014.5 |
| 20260905205427 | 85 | 96 | 4.0 | 8.0 | 0.00 | 0.00 | 0.00 | 75 | 1014.5 |
| 20260905204336 | 85 | 95 | 3.0 | 7.0 | 0.00 | 0.00 | 0.00 | 77 | 1014.5 |
| 20260905204108 | 85 | 42 | 2.0 | 7.0 | 0.00 | 0.00 | 0.00 | 78 | 1014.6 |
| 20260905203336 | 85 | 344 | 2.0 | 6.0 | 0.00 | 0.00 | 0.00 | 78 | 1014.7 |
| 20260905202838 | 84 | 317 | 2.0 | 5.0 | 0.00 | 0.00 | 0.00 | 77 | 1014.7 |
| 20260905202336 | 85 | 98 | 3.0 | 7.0 | 0.00 | 0.00 | 0.00 | 76 | 1014.8 |
| 20260905202057 | 85 | 61 | 3.0 | 7.0 | 0.00 | 0.00 | 0.00 | 76 | 1014.8 |
| 20260905201333 | 86 | 5 | 4.0 | 7.0 | 0.00 | 0.00 | 0.00 | 75 | 1014.9 |
| 20260905200832 | 86 | 16 | 4.0 | 7.0 | 0.00 | 0.00 | 0.00 | 77 | 1015.0 |
| 20260905200334 | 85 | 52 | 4.0 | 9.0 | 0.00 | 0.00 | 0.00 | 77 | 1015.0 |
| 20260905195833 | 85 | 68 | 2.0 | 9.0 | 0.00 | 0.00 | 0.00 | 79 | 1015.0 |
| 20260905195331 | 84 | 49 | 2.0 | 7.0 | 0.00 | 0.00 | 0.00 | 80 | 1015.0 |
| 20260905194828 | 84 | 302 | 3.0 | 7.0 | 0.00 | 0.00 | 0.00 | 79 | 1015.1 |
| 20260905194327 | 83 | 5 | 2.0 | 6.0 | 0.00 | 0.00 | 0.00 | 80 | 1015.1 |
| 20260905193825 | 83 | 320 | 4.0 | 7.0 | 0.00 | 0.00 | 0.00 | 79 | 1015.1 |
| 20260905193324 | 83 | 24 | 4.0 | 7.0 | 0.00 | 0.00 | 0.00 | 79 | 1015.2 |
| 20260905192826 | 84 | 33 | 3.0 | 7.0 | 0.00 | 0.00 | 0.00 | 79 | 1015.1 |
| 20260905192550 | 83 | 73 | 2.0 | 6.0 | 0.00 | 0.00 | 0.00 | 79 | 1015.3 |
| 20260905191819 | 83 | 261 | 2.0 | 6.0 | 0.00 | 0.00 | 0.00 | 80 | 1015.3 |
| 20260905191314 | 83 | 270 | 2.0 | 5.0 | 0.00 | 0.00 | 0.00 | 81 | 1015.4 |
| 20260905190814 | 82 | 328 | 2.0 | 5.0 | 0.00 | 0.00 | 0.00 | 82 | 1015.5 |
| 20260905190314 | 82 | 256 | 3.0 | 7.0 | 0.00 | 0.00 | 0.00 | 82 | 1015.5 |
| 20260905190035 | 82 | 56 | 3.0 | 7.0 | 0.00 | 0.00 | 0.00 | 81 | 1015.4 |
| 20260905185311 | 82 | 32 | 3.0 | 7.0 | 0.00 | 0.00 | 0.00 | 82 | 1015.5 |
| 20260905184810 | 82 | 54 | 3.0 | 6.0 | 0.00 | 0.00 | 0.00 | 81 | 1015.5 |
| 20260905184523 | 82 | 327 | 4.0 | 8.0 | 0.00 | 0.00 | 0.00 | 81 | 1015.6 |
| 20260905183808 | 82 | 22 | 3.0 | 8.0 | 0.00 | 0.00 | 0.00 | 80 | 1015.7 |
| 20260905183307 | 82 | 340 | 2.0 | 5.0 | 0.00 | 0.00 | 0.00 | 81 | 1015.7 |
| 20260905182806 | 82 | 64 | 2.0 | 5.0 | 0.00 | 0.00 | 0.00 | 82 | 1015.8 |
| 20260905182307 | 82 | 0 | 3.0 | 5.0 | 0.00 | 0.00 | 0.00 | 81 | 1015.8 |
| 20260905181806 | 82 | 252 | 2.0 | 5.0 | 0.00 | 0.00 | 0.00 | 81 | 1015.7 |
| 20260905181307 | 82 | 238 | 2.0 | 5.0 | 0.00 | 0.00 | 0.00 | 81 | 1015.9 |
| 20260905180806 | 82 | 225 | 3.0 | 8.0 | 0.00 | 0.00 | 0.00 | 81 | 1015.9 |
| 20260905180302 | 82 | 228 | 3.0 | 8.0 | 0.00 | 0.00 | 0.00 | 83 | 1015.9 |
| 20260905175803 | 81 | 218 | 4.0 | 7.0 | 0.00 | 0.00 | 0.00 | 83 | 1015.8 |
| 20260905175524 | 81 | 219 | 5.0 | 9.0 | 0.00 | 0.00 | 0.00 | 81 | 1015.8 |
| 20260905174803 | 81 | 239 | 5.0 | 9.0 | 0.00 | 0.00 | 0.00 | 81 | 1015.8 |
| 20260905174303 | 81 | 258 | 4.0 | 8.0 | 0.00 | 0.00 | 0.00 | 81 | 1015.8 |
| 20260905173756 | 81 | 264 | 4.0 | 8.0 | 0.00 | 0.00 | 0.00 | 81 | 1015.9 |
| 20260905173251 | 81 | 233 | 5.0 | 8.0 | 0.00 | 0.00 | 0.00 | 82 | 1015.9 |
| 20260905172747 | 81 | 255 | 4.0 | 8.0 | 0.00 | 0.00 | 0.00 | 83 | 1015.9 |
| 20260905172248 | 80 | 208 | 3.0 | 7.0 | 0.00 | 0.00 | 0.00 | 83 | 1016.0 |
| 20260905171749 | 80 | 284 | 4.0 | 7.0 | 0.00 | 0.00 | 0.00 | 83 | 1016.0 |
| 20260905171249 | 79 | 238 | 4.0 | 7.0 | 0.00 | 0.00 | 0.00 | 83 | 1016.1 |
| 20260905171007 | 79 | 240 | 4.0 | 7.0 | 0.00 | 0.00 | 0.00 | 83 | 1016.2 |
| 20260905170508 | 79 | 238 | 4.0 | 7.0 | 0.00 | 0.00 | 0.00 | 84 | 1016.2 |
| 20260905165746 | 78 | 180 | 3.0 | 7.0 | 0.00 | 0.00 | 0.00 | 84 | 1016.3 |
| 20260905165730 | 78 | 211 | 2.0 | 6.0 | 0.00 | 0.00 | 0.00 | 86 | 1016.3 |
| 20260905164745 | 77 | 135 | 1.0 | 4.0 | 0.00 | 0.00 | 0.00 | 86 | 1016.3 |
| 20260905164247 | 77 | 211 | 1.0 | 4.0 | 0.00 | 0.00 | 0.00 | 86 | 1016.5 |
| 20260905163743 | 76 | 211 | 2.0 | 4.0 | 0.00 | 0.00 | 0.00 | 86 | 1016.5 |
| 20260905163243 | 76 | 211 | 2.0 | 4.0 | 0.00 | 0.00 | 0.00 | 86 | 1016.6 |
| 20260905162742 | 76 | 211 | 2.0 | 5.0 | 0.00 | 0.00 | 0.00 | 86 | 1016.6 |
| 20260905162500 | 77 | 220 | 3.0 | 5.0 | 0.00 | 0.00 | 0.00 | 85 | 1016.6 |
| 20260905161743 | 77 | 216 | 4.0 | 8.0 | 0.00 | 0.00 | 0.00 | 85 | 1016.5 |
| 20260905161503 | 77 | 206 | 5.0 | 9.0 | 0.00 | 0.00 | 0.00 | 84 | 1016.5 |
| 20260905160742 | 77 | 207 | 5.0 | 9.0 | 0.00 | 0.00 | 0.00 | 85 | 1016.4 |
| 20260905160241 | 77 | 211 | 6.0 | 10.0 | 0.00 | 0.00 | 0.00 | 85 | 1016.4 |
| 20260905155743 | 77 | 188 | 6.0 | 10.0 | 0.00 | 0.00 | 0.00 | 85 | 1016.5 |
| 20260905155238 | 77 | 219 | 5.0 | 9.0 | 0.00 | 0.00 | 0.00 | 84 | 1016.4 |
| 20260905154737 | 77 | 182 | 4.0 | 8.0 | 0.00 | 0.00 | 0.00 | 86 | 1016.4 |
| 20260905154238 | 76 | 194 | 5.0 | 9.0 | 0.00 | 0.00 | 0.00 | 87 | 1016.4 |
| 20260905153738 | 76 | 210 | 5.0 | 9.0 | 0.00 | 0.00 | 0.00 | 87 | 1016.3 |
| 20260905153238 | 76 | 193 | 3.0 | 7.0 | 0.00 | 0.00 | 0.00 | 87 | 1016.4 |
| 20260905152739 | 75 | 213 | 1.0 | 7.0 | 0.00 | 0.00 | 0.00 | 87 | 1016.5 |
| 20260905152239 | 75 | 194 | 1.0 | 4.0 | 0.00 | 0.00 | 0.00 | 87 | 1016.4 |
| 20260905151738 | 75 | 194 | 2.0 | 5.0 | 0.00 | 0.00 | 0.00 | 86 | 1016.5 |
| 20260905151240 | 75 | 194 | 2.0 | 5.0 | 0.00 | 0.00 | 0.00 | 86 | 1016.4 |
| 20260905150739 | 75 | 252 | 2.0 | 5.0 | 0.00 | 0.00 | 0.00 | 87 | 1016.6 |
| 20260905150237 | 74 | 219 | 2.0 | 5.0 | 0.00 | 0.00 | 0.00 | 88 | 1016.6 |
| 20260905145737 | 74 | 302 | 2.0 | 3.0 | 0.00 | 0.00 | 0.00 | 88 | 1016.6 |
| 20260905145236 | 74 | 301 | 1.0 | 3.0 | 0.00 | 0.00 | 0.00 | 88 | 1016.5 |
| 20260905144731 | 74 | 229 | 1.0 | 3.0 | 0.00 | 0.00 | 0.00 | 88 | 1016.4 |
| 20260905144232 | 74 | 229 | 1.0 | 3.0 | 0.00 | 0.00 | 0.00 | 88 | 1016.5 |
| 20260905143948 | 74 | 215 | 1.0 | 2.0 | 0.00 | 0.00 | 0.00 | 88 | 1016.5 |
| 20260905143229 | 74 | 215 | 1.0 | 4.0 | 0.00 | 0.00 | 0.00 | 88 | 1016.5 |
| 20260905142725 | 73 | 215 | 2.0 | 4.0 | 0.00 | 0.00 | 0.00 | 89 | 1016.4 |
| 20260905142227 | 73 | 216 | 3.0 | 6.0 | 0.00 | 0.00 | 0.00 | 89 | 1016.3 |
| 20260905141725 | 73 | 180 | 6.0 | 11.0 | 0.00 | 0.00 | 0.00 | 89 | 1016.2 |
| 20260905141227 | 73 | 175 | 7.0 | 11.0 | 0.00 | 0.00 | 0.00 | 89 | 1016.0 |
| 20260905140726 | 73 | 184 | 7.0 | 12.0 | 0.00 | 0.00 | 0.00 | 89 | 1015.9 |
| 20260905140225 | 73 | 223 | 7.0 | 12.0 | 0.00 | 0.00 | 0.00 | 89 | 1015.9 |
| 20260905135725 | 73 | 189 | 7.0 | 12.0 | 0.00 | 0.00 | 0.00 | 90 | 1015.8 |
| 20260905135225 | 73 | 211 | 8.0 | 12.0 | 0.00 | 0.00 | 0.00 | 89 | 1015.9 |
| 20260905134725 | 72 | 182 | 8.0 | 12.0 | 0.00 | 0.00 | 0.00 | 90 | 1015.9 |
| 20260905134225 | 72 | 198 | 8.0 | 12.0 | 0.00 | 0.00 | 0.00 | 90 | 1015.9 |
| 20260905134205 | 72 | 213 | 8.0 | 12.0 | 0.00 | 0.00 | 0.00 | 91 | 1015.8 |
| 20260905133213 | 72 | 187 | 8.0 | 12.0 | 0.00 | 0.00 | 0.00 | 91 | 1015.7 |
| 20260905132706 | 71 | 207 | 7.0 | 11.0 | 0.00 | 0.00 | 0.00 | 91 | 1015.6 |
| 20260905132200 | 71 | 180 | 7.0 | 11.0 | 0.00 | 0.00 | 0.00 | 91 | 1015.5 |
| 20260905131920 | 71 | 211 | 6.0 | 10.0 | 0.00 | 0.00 | 0.00 | 91 | 1015.5 |
| 20260905131147 | 71 | 192 | 6.0 | 10.0 | 0.00 | 0.00 | 0.00 | 92 | 1015.5 |
| 20260905130641 | 71 | 187 | 5.0 | 8.0 | 0.00 | 0.00 | 0.00 | 92 | 1015.6 |
| 20260905130136 | 71 | 217 | 5.0 | 8.0 | 0.00 | 0.00 | 0.00 | 92 | 1015.7 |
| 20260905125629 | 70 | 203 | 5.0 | 7.0 | 0.00 | 0.00 | 0.00 | 92 | 1015.7 |
| 20260905125124 | 70 | 215 | 5.0 | 7.0 | 0.00 | 0.00 | 0.00 | 92 | 1015.6 |
| 20260905124617 | 70 | 213 | 4.0 | 7.0 | 0.00 | 0.00 | 0.00 | 92 | 1015.6 |
| 20260905124112 | 70 | 214 | 3.0 | 5.0 | 0.00 | 0.00 | 0.00 | 92 | 1015.7 |
| 20260905123606 | 70 | 226 | 3.0 | 7.0 | 0.00 | 0.00 | 0.00 | 92 | 1015.7 |
| 20260905123100 | 70 | 211 | 5.0 | 8.0 | 0.00 | 0.00 | 0.00 | 92 | 1015.6 |
| 20260905122554 | 70 | 192 | 6.0 | 8.0 | 0.00 | 0.00 | 0.00 | 93 | 1015.5 |
| 20260905122047 | 70 | 202 | 5.0 | 8.0 | 0.00 | 0.00 | 0.00 | 92 | 1015.4 |
| 20260905122030 | 70 | 184 | 4.0 | 7.0 | 0.00 | 0.00 | 0.00 | 92 | 1015.4 |
| 20260905121036 | 70 | 199 | 3.0 | 6.0 | 0.00 | 0.00 | 0.00 | 92 | 1015.6 |
| 20260905120529 | 69 | 190 | 3.0 | 8.0 | 0.00 | 0.00 | 0.00 | 93 | 1015.6 |
| 20260905120024 | 69 | 200 | 4.0 | 8.0 | 0.00 | 0.00 | 0.00 | 92 | 1015.5 |
| 20260905115518 | 69 | 194 | 5.0 | 9.0 | 0.00 | 0.00 | 0.00 | 92 | 1015.4 |
| 20260905115235 | 69 | 152 | 4.0 | 9.0 | 0.00 | 0.00 | 0.00 | 92 | 1015.4 |
| 20260905114506 | 69 | 199 | 4.0 | 8.0 | 0.00 | 0.00 | 0.00 | 92 | 1015.4 |
| 20260905114000 | 70 | 208 | 5.0 | 9.0 | 0.00 | 0.00 | 0.00 | 92 | 1015.4 |
| 20260905113454 | 70 | 198 | 5.0 | 9.0 | 0.00 | 0.00 | 0.00 | 92 | 1015.3 |
| 20260905112952 | 70 | 168 | 6.0 | 10.0 | 0.00 | 0.00 | 0.00 | 92 | 1015.3 |
| 20260905112442 | 70 | 188 | 6.0 | 10.0 | 0.00 | 0.00 | 0.00 | 92 | 1015.2 |
| 20260905111936 | 70 | 180 | 6.0 | 9.0 | 0.00 | 0.00 | 0.00 | 92 | 1015.1 |
| 20260905111430 | 70 | 184 | 6.0 | 9.0 | 0.00 | 0.00 | 0.00 | 92 | 1015.1 |
| 20260905111144 | 70 | 203 | 6.0 | 9.0 | 0.00 | 0.00 | 0.00 | 92 | 1015.1 |
| 20260905110417 | 70 | 187 | 6.0 | 11.0 | 0.00 | 0.00 | 0.00 | 92 | 1015.0 |
| 20260905105912 | 70 | 194 | 5.0 | 11.0 | 0.00 | 0.00 | 0.00 | 91 | 1014.9 |
| 20260905105406 | 70 | 186 | 3.0 | 7.0 | 0.00 | 0.00 | 0.00 | 91 | 1015.0 |
| 20260905104901 | 70 | 168 | 2.0 | 7.0 | 0.00 | 0.00 | 0.00 | 91 | 1015.0 |
| 20260905104353 | 70 | 132 | 3.0 | 7.0 | 0.00 | 0.00 | 0.00 | 91 | 1015.0 |
| 20260905103847 | 71 | 181 | 2.0 | 7.0 | 0.00 | 0.00 | 0.00 | 90 | 1015.1 |
| 20260905103342 | 71 | 163 | 2.0 | 4.0 | 0.00 | 0.00 | 0.00 | 90 | 1015.2 |
| 20260905102836 | 71 | 159 | 3.0 | 6.0 | 0.00 | 0.00 | 0.00 | 90 | 1015.2 |
| 20260905102330 | 71 | 177 | 3.0 | 6.0 | 0.00 | 0.00 | 0.00 | 90 | 1015.1 |
| 20260905101825 | 71 | 208 | 3.0 | 6.0 | 0.00 | 0.00 | 0.00 | 90 | 1015.0 |
| 20260905101318 | 71 | 192 | 4.0 | 7.0 | 0.00 | 0.00 | 0.00 | 89 | 1014.9 |
| 20260905100812 | 71 | 202 | 5.0 | 7.0 | 0.00 | 0.00 | 0.00 | 89 | 1014.9 |
| 20260905100306 | 71 | 188 | 5.0 | 8.0 | 0.00 | 0.00 | 0.00 | 89 | 1014.8 |
| 20260905095759 | 72 | 197 | 5.0 | 8.0 | 0.00 | 0.00 | 0.00 | 88 | 1014.8 |
| 20260905095254 | 72 | 196 | 5.0 | 8.0 | 0.00 | 0.00 | 0.00 | 88 | 1014.9 |
| 20260905094748 | 72 | 173 | 5.0 | 8.0 | 0.00 | 0.00 | 0.00 | 88 | 1014.9 |
| 20260905094242 | 72 | 184 | 3.0 | 8.0 | 0.00 | 0.00 | 0.00 | 88 | 1015.0 |
| 20260905093736 | 73 | 198 | 2.0 | 5.0 | 0.00 | 0.00 | 0.00 | 88 | 1015.1 |
| 20260905093230 | 73 | 157 | 2.0 | 5.0 | 0.00 | 0.00 | 0.00 | 87 | 1015.1 |
| 20260905092723 | 73 | 185 | 1.0 | 5.0 | 0.00 | 0.00 | 0.00 | 87 | 1015.1 |
| 20260905092446 | 73 | 184 | 2.0 | 5.0 | 0.00 | 0.00 | 0.00 | 87 | 1015.3 |
| 20260905091711 | 73 | 184 | 2.0 | 5.0 | 0.00 | 0.00 | 0.00 | 86 | 1015.1 |
| 20260905091206 | 73 | 196 | 1.0 | 4.0 | 0.00 | 0.00 | 0.00 | 86 | 1015.2 |
| 20260905090700 | 74 | 194 | 1.0 | 3.0 | 0.00 | 0.00 | 0.00 | 86 | 1015.0 |
| 20260905090153 | 74 | 200 | 2.0 | 4.0 | 0.00 | 0.00 | 0.00 | 86 | 1015.3 |
| 20260905085647 | 74 | 190 | 2.0 | 5.0 | 0.00 | 0.00 | 0.00 | 86 | 1015.2 |
| 20260905085142 | 74 | 109 | 2.0 | 5.0 | 0.00 | 0.00 | 0.00 | 86 | 1015.4 |
| 20260905084636 | 74 | 107 | 1.0 | 5.0 | 0.00 | 0.00 | 0.00 | 86 | 1015.4 |
| 20260905084130 | 74 | 130 | 1.0 | 2.0 | 0.00 | 0.00 | 0.00 | 86 | 1015.5 |